Location: Bieujac
(44.5398°N, 0.1549°W)
Time: 11:06:24
(UTC+00:00)

Cosmos 2151 - Pass Details

Date: 17 November 2019
Orbit: 581 x 602 km, 82.5° (Epoch: 12 December)

Event Time Altitude Azimuth Distance (km) Brightness Sun altitude
Rises 05:00:35 0° 185° (S) 2,837 6.5 -21.0°
Reaches altitude 10° 05:02:47 10° 185° (S) 1,940 5.6 -20.6°
Maximum altitude 05:07:05 84° 97° (E) 612 3.0 -19.9°
Drops below altitude 10° 05:11:25 10° 10° (N) 1,955 5.6 -19.1°
Sets 05:13:38 0° 10° (N) 2,861 6.5 -18.7°
